Weather Roundup
Issued by NWS Corpus Christi, TX

Home | Current Version | Previous Version | Text Only | Print | Product List | Glossary On
Versions: 1 2 3 4 5 6 7 8 9 10 11 12 13 14 15 16 17 18 19 20 21 22 23 24 25 26 27 28 29 30 31 32 33 34 35 36 37 38 39 40 41 42 43 44 45 46 47 48 49 50
000
ASUS44 KCRP 201911
HRRCRP

SOUTH TEXAS REGIONAL WEATHER ROUNDUP
NATIONAL WEATHER SERVICE CORPUS CHRISTI TX
100 PM CST MON NOV 20 2017


TXZ229>244-202000-
...CORPUS CHRISTI AREA OBSERVATIONS...

CITY           SKY/WX    TMP DP  RH WIND       PRES   REMARKS
CORPUS CHRISTI CLOUDY    68  51  54 E12       30.12F
NAS CORPUS CHR CLOUDY    68  54  60 NE14      30.12F
ROCKPORT       CLOUDY    67  50  54 NE9       30.12F
KINGSVILLE ARP CLOUDY    67  52  60 E3        30.13F
KINGSVILLE NAS CLOUDY    66  53  63 NE6       30.12F
ALICE          CLOUDY    67  47  48 E8        30.12F
$$

...VICTORIA AREA OBSERVATIONS...

CITY           SKY/WX    TMP DP  RH WIND       PRES   REMARKS
PORT LAVACA    CLOUDY    65  47  50 NE6       30.14F
VICTORIA       CLOUDY    69  47  45 SE8       30.14F
BEEVILLE       CLOUDY    68  47  48 E5        30.12F
PLEASANTON     SUNNY     69  39  33 S10G16    30.13F
SAN ANTONIO    MOSUNNY   65  30  27 SW12G17   30.12F
$$

...LAREDO AREA OBSERVATIONS...

CITY           SKY/WX    TMP DP  RH WIND       PRES   REMARKS
LAREDO         MOSUNNY   69  44  40 S10       30.12F
COTULLA        SUNNY     68  30  24 SE6       30.12F
DEL RIO        SUNNY     66  35  31 SE15      30.08F
MCALLEN        CLOUDY    64  50  60 VRB5      30.11F
HEBBRONVILLE   CLOUDY    60  42  50 CALM      30.14F
$$

...OTHER TEXAS OBSERVATIONS...

CITY           SKY/WX    TMP DP  RH WIND       PRES   REMARKS
BROWNSVILLE    CLOUDY    68  62  81 N8        30.09F
HOUSTON        PTSUNNY   64  41  42 S9        30.16F
COL. STATION   SUNNY     65  40  39 S15G21    30.13F
AUSTIN         MOSUNNY   65  34  31 S9G20     30.11F
WACO           SUNNY     64  33  31 S18       30.10F
FORT WORTH     MOSUNNY   65  30  27 S20G26    30.05F
WICHITA FALLS  MOSUNNY   64  28  25 S21G31    29.97F
LUBBOCK        CLOUDY    65  17  15 SW21      29.92F
EL PASO        MOSUNNY   62  17  17 CALM      30.11F
$$

...MARINE OBSERVATIONS...

STATION/POSITION TIME  SKY/WX   TEMP    WIND        PRES    VSBY  WAVE   SWELL
                                AIR SEA DIR/SP/G                  HT/PER HT/PER
                 (UTC)          (F)     (DEG/KT/KT) (MB)    (MI)  (FT/S) (FT/S)
PORT ARANSAS     1900            65 70   40/ 13/ 14 1019.7F
BUOY 90 E PORT A 1850            68 78   70/ 10/ 12 1019.8F         3/ 6   3/ 6
BUOY 200 E PT IS 1850            72 80   60/  4/ 10 1019.5F         4/ 6   3/ 6
BUOY 15 E GALVES 1750            62 71  100/  8/ 12 1022.6          3/ 5   2/ 5
$$




USA.gov is the U.S. government's official web portal to all federal, state and local government web resources and services.